Dewpoint
23 16 16 15 15 15 16 16 18 20 21 19 19 19 20 21 21 21 30 37 39 41 42 44 47 48 52 56 57 57 57 57 58 59 57 57 57 60 61 62 64 64 63 62
18 17 17 16 17 18 18 17 19 20 22 20 21 21 22 27 26 31 33 35 37 40 39 40 45 49 52 55 57 57 57 57 56 58 58 58 57 59 60 61 62 64 61 60
16 18 18 17 18 19 19 19 21 22 24 23 22 21 26 32 36 37 37 36 37 39 39 43 45 47 49 49 53 57 56 56 56 56 57 55 55 56 57 59 61 63 63 62
17 18 19 18 19 20 17 23 22 21 22 19 22 16 25 30 35 37 38 38 39 40 41 41 42 45 48 49 50 52 56 55 55 55 54 54 54 54 56 59 61 63 63 62
18 18 20 18 21 20 21 22 22 22 21 19 18 17 24 29 32 36 39 40 41 41 42 42 43 45 46 49 50 52 53 54 54 53 53 54 52 54 56 57 59 61 63 62
25 25 18 22 22 24 28 23 21 24 21 17 17 17 19 27 30 35 40 41 42 40 41 44 46 47 48 49 48 47 48 51 53 51 52 53 52 52 54 56 58 59 61 61
28 26 24 23 22 25 22 22 19 19 19 18 21 19 24 29 33 36 39 40 41 41 42 46 46 46 48 50 49 48 46 45 51 53 53 53 52 51 53 56 57 57 58 59
29 25 27 28 25 24 21 21 20 17 18 17 21 19 23 29 36 38 40 41 41 41 42 46 47 46 46 48 50 49 48 49 50 52 52 53 53 52 54 55 55 56 57 57
26 25 31 26 26 24 23 21 22 21 23 18 18 23 25 32 34 36 39 40 40 39 40 43 44 45 45 47 48 50 50 51 48 47 48 52 53 52 53 53 54 54 54 55
31 23 29 32 32 27 23 25 22 25 19 17 21 19 20 26 33 35 39 39 39 38 40 42 43 44 46 46 48 49 46 46 46 46 46 47 48 52 53 53 53 52 51 51
32 27 25 29 27 25 25 22 22 21 25 18 19 20 23 26 31 35 38 40 38 40 41 41 42 44 47 48 43 44 44 44 44 45 45 46 46 47 51 52 51 50 49 49
35 32 28 26 27 27 26 25 24 25 19 23 25 24 28 30 35 37 38 38 41 41 41 41 43 45 43 42 42 43 43 44 44 45 45 46 45 46 48 50 49 48 47 48
29 24 19 16 18 30 29 29 26 25 27 25 21 21 35 36 36 36 36 36 37 37 38 39 41 40 39 41 41 42 43 44 43 44 44 45 45 45 47 51 49 49 48 48
36 27 20 18 16 31 29 31 30 26 21 23 23 24 33 35 35 35 35 35 36 37 38 38 38 38 39 40 42 43 44 44 43 43 44 45 46 46 51 50 48 47 47 47
34 27 31 31 34 33 32 30 28 26 25 22 27 33 35 36 36 36 36 37 37 37 38 38 38 38 39 39 42 43 44 44 42 42 44 46 47 51 49 48 46 47 46 46
37 28 34 32 34 31 29 29 27 28 26 28 35 35 37 37 37 36 37 38 38 38 39 39 39 40 39 40 42 43 43 44 43 43 45 47 50 48 47 46 45 45 45 45
33 32 30 28 33 31 21 27 27 32 37 31 31 35 37 36 37 36 38 39 39 39 40 39 39 40 41 42 43 43 45 45 44 44 47 47 47 45 45 45 44 44 44 44
34 31 32 25 27 13 21 30 33 37 37 38 37 37 37 37 37 38 40 39 39 40 40 39 39 41 42 41 42 43 45 46 45 46 47 46 45 44 44 44 43 43 44 43
35 34 28 23 19 26 31 35 34 32 34 38 36 36 36 38 37 35 41 41 40 40 40 40 41 41 39 42 44 45 45 45 45 47 45 45 44 43 43 43 43 43 43 43
38 35 31 26 27 25 28 38 36 36 28 37 38 36 37 38 34 36 40 41 40 40 40 41 40 39 42 42 43 45 45 45 46 45 44 43 43 43 42 43 43 43 42 43
34 36 30 31 32 35 37 37 35 31 29 36 38 39 38 36 38 40 41 39 39 40 40 40 39 40 39 41 44 44 45 45 45 44 43 43 43 43 43 43 43 42 44 43
34 34 35 35 33 31 40 35 33 34 36 39 40 40 39 40 40 40 40 39 39 38 38 40 39 39 41 42 44 43 45 44 44 43 43 43 43 44 44 43 44 44 44 44
28 32 30 33 31 36 38 36 37 40 38 39 39 40 39 39 39 40 39 38 37 37 39 40 39 41 41 42 42 43 44 44 43 43 43 43 43 44 44 43 44 45 44 42
33 34 30 31 32 36 37 37 40 40 39 40 39 39 39 38 39 39 38 36 37 37 39 39 41 40 41 43 45 44 44 44 43 43 43 42 41 40 40 41 39 37 37 36
32 34 32 31 34 36 37 39 41 41 40 40 40 40 39 38 36 36 36 37 38 37 39 40 41 41 42 44 44 44 44 44 43 42 43 42 41 38 36 36 36 35 35 36
34 31 31 31 36 37 37 40 40 39 39 39 39 37 37 37 36 37 38 38 37 37 39 41 41 42 44 43 43 43 44 44 42 41 40 38 36 36 35 35 35 37 36 36
Lifted_Index
6 5 5 5 4 5 4 4 4 4 4 4 3 3 4 5 5 5 4 4 4 4 4 4 4 3 3 2 2 2 3 3 3 2 1 1 1 -0 -1 -1 -2 -3 -3 -3
5 5 5 5 5 5 4 4 3 4 4 4 4 4 4 5 5 5 4 4 4 4 4 4 4 4 3 2 1 2 2 2 2 2 1 1 1 1 -0 -1 -1 -2 -2 -3
5 5 5 5 5 4 4 4 4 4 4 4 4 4 4 5 5 4 3 3 2 3 3 4 4 3 3 2 1 1 1 1 1 1 1 1 1 1 1 0 -1 -1 -2 -2
5 5 5 5 5 4 4 4 5 4 4 4 4 4 4 5 4 3 2 1 1 1 2 2 3 3 2 2 2 1 1 1 1 1 1 1 1 1 1 0 -0 -1 -1 -2
5 5 5 5 5 5 5 5 5 4 4 4 4 4 4 5 4 3 2 1 1 1 2 2 2 2 2 2 2 2 1 1 1 1 1 1 2 2 1 0 -0 -1 -1 -1
4 4 4 5 5 5 5 5 4 4 3 3 3 4 4 4 4 3 3 2 2 2 2 2 2 2 2 2 2 2 2 2 1 1 0 1 2 2 1 1 -0 -0 -1 -1
4 4 4 5 5 4 5 4 3 2 2 2 3 4 4 5 5 4 4 3 3 3 2 2 2 2 2 2 2 2 2 2 1 1 -0 -0 1 1 2 1 0 -0 -0 -0
4 4 4 5 4 4 4 4 3 2 2 2 3 4 4 5 5 5 4 4 3 3 2 2 2 2 3 3 2 2 2 2 1 1 0 -0 -0 1 1 1 0 0 1 1
4 4 4 4 4 4 4 4 4 3 2 2 3 4 4 4 4 4 5 4 4 3 2 2 2 3 3 3 3 2 2 2 2 2 1 1 1 1 1 1 1 1 2 2
4 4 4 4 4 4 4 4 4 4 3 2 3 4 4 3 4 4 4 4 3 3 2 2 2 2 3 3 3 3 3 3 3 3 3 3 2 2 2 1 1 1 2 2
4 4 4 4 5 5 5 4 4 4 3 2 2 3 3 4 4 4 4 4 3 2 2 2 2 2 2 3 3 4 4 4 4 4 4 4 4 3 3 2 2 1 2 2
4 4 4 4 5 5 5 4 4 4 3 3 3 3 4 4 4 4 3 3 3 2 2 2 2 2 3 3 4 5 5 5 5 5 5 5 5 4 4 3 2 1 1 2
4 4 4 4 5 5 5 4 4 4 4 4 3 3 3 3 3 3 3 3 2 2 2 2 3 3 3 4 5 5 6 6 6 6 6 6 5 5 4 3 2 1 2 2
4 5 5 4 4 4 4 4 4 4 4 3 3 3 3 3 2 2 2 2 2 2 2 3 3 4 4 5 5 6 6 7 7 7 6 6 5 5 3 3 2 2 2 2
5 5 5 5 4 5 5 5 4 4 3 3 3 3 2 2 2 2 2 2 2 3 3 3 4 4 5 5 6 7 7 7 7 7 6 6 5 4 3 3 2 2 3 3
5 5 5 5 5 5 5 5 4 4 3 3 3 2 2 2 2 2 2 2 3 3 4 4 4 5 6 6 7 7 8 8 8 7 6 5 5 4 3 3 3 3 4 4
6 5 5 5 5 4 4 4 4 3 3 3 2 2 2 2 2 2 2 3 3 3 4 4 5 6 7 7 8 8 8 8 8 7 6 5 5 4 4 4 5 5 6 6
5 5 4 5 4 4 4 4 3 3 3 2 2 2 2 2 2 2 2 3 3 4 4 5 6 7 8 8 9 9 8 8 7 7 6 6 6 6 6 6 7 8 8 8
3 4 4 4 4 3 4 4 3 3 3 2 2 2 2 2 3 2 3 3 3 4 4 5 7 8 8 9 9 9 8 8 7 7 6 6 7 7 7 8 9 9 9 9
3 3 3 3 3 3 3 3 3 3 3 3 3 3 3 3 3 3 3 3 3 4 5 6 7 8 8 9 10 9 9 8 7 7 7 7 8 8 9 9 9 9 9 9
3 3 3 3 3 3 3 3 3 3 3 3 3 3 3 3 3 3 3 3 4 5 6 7 8 8 8 9 10 9 9 8 8 8 8 8 9 9 9 9 9 8 8 8
3 3 3 3 3 3 3 3 3 3 3 3 3 3 3 3 3 3 4 4 5 6 7 7 7 8 8 9 10 9 9 8 8 8 8 9 9 9 8 8 8 8 8 8
3 3 3 3 3 3 3 3 3 3 3 3 3 3 3 3 3 4 5 5 6 7 8 8 7 7 8 9 9 8 8 8 9 9 9 9 9 8 8 8 8 8 8 8
4 3 3 3 3 3 3 3 3 3 2 2 3 3 3 3 4 5 6 7 8 9 9 8 8 7 8 8 8 8 8 9 9 9 10 9 9 9 9 9 9 9 9 8
4 4 4 3 3 3 3 3 2 2 2 2 3 3 4 4 5 7 8 9 10 10 9 8 8 8 8 8 8 8 9 9 10 10 10 10 10 10 10 9 9 8 8 8
4 4 4 4 4 3 3 2 2 2 2 3 3 4 4 5 6 8 9 10 11 10 9 8 8 8 8 7 8 8 9 10 10 11 11 11 11 10 10 9 8 8 7 6